Weather History for Jacksonville, TX

Change the Weather History Date:

Friday, September 27, 2013

  Actual Average (KTYR) Record (KTYR)
Temperature  
Mean Temperature 76 °F 73 °F  
Max Temperature 87 °F 83 °F 99 °F (1953)
Min Temperature 65 °F 62 °F 39 °F (1942)
Degree Days  
Heating Degree Days 0 0  
Month to date heating degree days 0  
Since 1 July heating degree days 0  
Cooling Degree Days 11 8  
Month to date cooling degree days 319  
Year to date cooling degree days 2241  
Growing Degree Days 26 (Base 50)    
Moisture  
Dew Point 64 °F    
Average Humidity 66    
Maximum Humidity 96    
Minimum Humidity 39    
Precipitation  
Precipitation 0.00 in 0.11 in 0.93 in (1993)
Month to date precipitation 3.05  
Year to date precipitation 32.31  
Snow  
Snow 0.00 in - - ()
Month to date snowfall  
Since 1 July snowfall  
Since 1 September snowfall  
Snow Depth -    
Sea Level Pressure  
Sea Level Pressure 29.96 in    
Wind  
Wind Speed 4 mph (SSE)    
Max Wind Speed 13 mph    
Max Gust Speed -    
Visibility 10 miles    
Events      
T = Trace of Precipitation, MM = Missing Value Source: NWS Daily Summary

Daily Weather History Graph

Daily Weather History Graph

Search for Another Location

Airport:

Trip Planner

Search our weather history database for the weather conditions in past years. The results will help you decide how hot, cold, wet, or windy it might be!

Date:

Astronomy

Sep. 27, 2013 Rise Set
Actual Time 7:12 AM CDT 7:10 PM CDT
Civil Twilight 6:48 AM CDT 7:34 PM CDT
Nautical Twilight 6:19 AM CDT 8:03 PM CDT
Astronomical Twilight 5:51 AM CDT 8:31 PM CDT
Moon 12:28 AM CDT (9/27) 2:30 PM CDT (9/27)
Length of Visible Light 12h 46m
Length of Day
11h 58m
Last Quarter, 45% of the Moon is Illuminated
Sep 27
Last Quarter
Oct 4
New
Oct 11
First Quarter
Oct 18
Full
Oct 26
Last Quarter

Hourly Weather History & Observations

Time (CDT) Temp. Heat Index Dew Point Humidity Pressure Visibility Wind Dir Wind Speed Gust Speed Precip Events Conditions
12:15 AM 74.8 °F - 59.4 °F 58% 29.94 in 10.0 mi South 5.8 mph - N/A   Clear
12:35 AM 73.9 °F - 60.3 °F 62% 29.94 in 10.0 mi South 4.6 mph - N/A   Clear
12:55 AM 73.2 °F - 60.8 °F 65% 29.94 in 10.0 mi South 5.8 mph - N/A   Clear
1:15 AM 72.5 °F - 61.0 °F 67% 29.94 in 10.0 mi South 4.6 mph - N/A   Clear
1:35 AM 72.1 °F - 61.3 °F 69% 29.94 in 10.0 mi South 4.6 mph - N/A   Clear
1:55 AM 72.5 °F - 61.7 °F 69% 29.95 in 10.0 mi South 4.6 mph - N/A   Clear
2:15 AM 72.0 °F - 61.9 °F 70% 29.95 in 10.0 mi SSW 3.5 mph - N/A   Clear
2:35 AM 71.6 °F - 62.1 °F 72% 29.95 in 10.0 mi Calm Calm - N/A   Clear
2:55 AM 71.1 °F - 62.1 °F 73% 29.95 in 10.0 mi South 3.5 mph - N/A   Clear
3:15 AM 67.3 °F - 61.7 °F 82% 29.95 in 10.0 mi East 3.5 mph - N/A   Clear
3:35 AM 66.4 °F - 61.7 °F 85% 29.95 in 10.0 mi Calm Calm - N/A   Clear
3:55 AM 66.6 °F - 61.9 °F 85% 29.95 in 10.0 mi Calm Calm - N/A   Clear
4:15 AM 67.3 °F - 62.2 °F 84% 29.95 in 10.0 mi Calm Calm - N/A   Clear
4:35 AM 67.1 °F - 62.6 °F 85% 29.94 in 10.0 mi Calm Calm - N/A   Clear
4:55 AM 67.3 °F - 63.1 °F 87% 29.95 in 10.0 mi Calm Calm - N/A   Clear
5:15 AM 68.5 °F - 63.5 °F 84% 29.95 in 10.0 mi Calm Calm - N/A   Clear
5:35 AM 68.2 °F - 63.9 °F 86% 29.96 in 10.0 mi Calm Calm - N/A   Clear
5:55 AM 66.2 °F - 63.5 °F 91% 29.97 in 10.0 mi Calm Calm - N/A   Clear
6:15 AM 65.7 °F - 63.9 °F 94% 29.97 in 10.0 mi Calm Calm - N/A   Clear
6:35 AM 65.5 °F - 63.7 °F 94% 29.98 in 10.0 mi Calm Calm - N/A   Clear
6:55 AM 65.7 °F - 63.7 °F 93% 29.98 in 10.0 mi Calm Calm - N/A   Clear
7:15 AM 65.7 °F - 64.4 °F 96% 29.99 in 10.0 mi Calm Calm - N/A   Clear
7:35 AM 66.0 °F - 64.4 °F 94% 29.99 in 7.0 mi Calm Calm - N/A   Clear
7:55 AM 67.3 °F - 65.1 °F 93% 30.00 in 10.0 mi Calm Calm - N/A   Clear
8:15 AM 70.2 °F - 66.9 °F 89% 30.00 in 10.0 mi Calm Calm - N/A   Clear
8:35 AM 72.0 °F - 67.5 °F 86% 30.01 in 10.0 mi Calm Calm - N/A   Clear
8:55 AM 73.6 °F - 68.2 °F 83% 30.01 in 10.0 mi Calm Calm - N/A   Clear
9:15 AM 75.6 °F - 68.9 °F 80% 30.01 in 10.0 mi Calm Calm - N/A   Clear
9:35 AM 77.2 °F - 69.3 °F 76% 30.01 in 10.0 mi Calm Calm - N/A   Clear
9:55 AM 79.2 °F - 68.9 °F 71% 30.01 in 10.0 mi SSE 3.5 mph - N/A   Clear
10:15 AM 80.4 °F 82.7 °F 66.9 °F 63% 30.01 in 10.0 mi SSE 6.9 mph - N/A   Clear
10:35 AM 81.3 °F 83.8 °F 67.1 °F 62% 30.02 in 10.0 mi ESE 4.6 mph - N/A   Clear
10:55 AM 81.5 °F 83.1 °F 64.4 °F 56% 30.02 in 10.0 mi South 9.2 mph - N/A   Clear
11:15 AM 82.4 °F 83.7 °F 63.9 °F 53% 30.01 in 10.0 mi SSE 8.1 mph - N/A   Clear
11:35 AM 83.3 °F 84.4 °F 63.7 °F 51% 30.01 in 10.0 mi SSE 6.9 mph - N/A   Clear
11:55 AM 83.7 °F 84.7 °F 63.1 °F 50% 30.01 in 10.0 mi SSE 6.9 mph - N/A   Clear
12:15 PM 84.7 °F 85.0 °F 61.5 °F 45% 30.00 in 10.0 mi South 9.2 mph - N/A   Clear
12:35 PM 85.5 °F 85.7 °F 61.0 °F 44% 30.00 in 10.0 mi SE 6.9 mph - N/A   Clear
12:55 PM 86.4 °F 85.9 °F 59.5 °F 40% 29.99 in 10.0 mi SSE 12.7 mph - N/A   Scattered Clouds
1:15 PM 86.5 °F 85.9 °F 59.0 °F 39% 29.98 in 10.0 mi SE 9.2 mph - N/A   Scattered Clouds
1:35 PM 86.2 °F 85.6 °F 59.0 °F 40% 29.97 in 10.0 mi SE 4.6 mph - N/A   Mostly Cloudy
1:55 PM 86.5 °F 86.5 °F 60.8 °F 42% 29.97 in 10.0 mi SE 9.2 mph - N/A   Overcast
2:15 PM 86.5 °F 86.3 °F 60.3 °F 41% 29.96 in 10.0 mi SE 6.9 mph - N/A   Overcast
2:35 PM 87.8 °F 87.9 °F 61.7 °F 41% 29.96 in 10.0 mi South 9.2 mph - N/A   Overcast
2:55 PM 86.7 °F 86.8 °F 61.3 °F 42% 29.95 in 10.0 mi Calm Calm - N/A   Overcast
3:15 PM 86.0 °F 86.6 °F 62.2 °F 45% 29.94 in 10.0 mi Calm Calm - N/A   Overcast
3:35 PM 86.2 °F 86.6 °F 62.1 °F 44% 29.94 in 10.0 mi Calm Calm - N/A   Overcast
3:55 PM 86.2 °F 87.1 °F 63.0 °F 46% 29.94 in 10.0 mi SE 3.5 mph - N/A   Overcast
4:15 PM 86.9 °F 88.1 °F 64.0 °F 46% 29.94 in 10.0 mi SSE 8.1 mph - N/A   Overcast
4:35 PM 86.2 °F 87.6 °F 64.6 °F 48% 29.94 in 10.0 mi SSE 9.2 mph - N/A   Overcast
4:55 PM 85.5 °F 87.1 °F 65.1 °F 50% 29.94 in 7.0 mi SSE 8.1 mph - N/A   Overcast
5:15 PM 84.9 °F 86.8 °F 65.3 °F 52% 29.93 in 10.0 mi Calm Calm - N/A   Overcast
5:35 PM 84.9 °F 86.8 °F 65.5 °F 52% 29.93 in 10.0 mi SSE 8.1 mph - N/A   Overcast
5:55 PM 84.6 °F 86.6 °F 65.8 °F 53% 29.94 in 5.0 mi SE 5.8 mph - N/A   Haze
6:15 PM 83.7 °F 86.0 °F 66.4 °F 56% 29.94 in 10.0 mi SE 3.5 mph - N/A   Overcast
6:35 PM 83.1 °F 85.4 °F 66.6 °F 57% 29.94 in 10.0 mi SE 4.6 mph - N/A   Overcast
6:55 PM 82.2 °F 84.7 °F 67.1 °F 60% 29.94 in 10.0 mi Calm Calm - N/A   Mostly Cloudy
7:15 PM 81.5 °F 83.9 °F 67.1 °F 61% 29.94 in 10.0 mi Calm Calm - N/A   Mostly Cloudy
7:35 PM 80.2 °F 82.6 °F 67.1 °F 64% 29.94 in 10.0 mi Calm Calm - N/A   Scattered Clouds
7:55 PM 79.7 °F - 66.4 °F 64% 29.94 in 10.0 mi Calm Calm - N/A   Clear
8:15 PM 79.0 °F - 66.2 °F 65% 29.94 in 10.0 mi SE 4.6 mph - N/A   Clear
8:35 PM 78.8 °F - 65.3 °F 63% 29.94 in 10.0 mi SE 4.6 mph - N/A   Clear
8:55 PM 78.6 °F - 64.8 °F 62% 29.95 in 10.0 mi Calm Calm - N/A   Clear
9:15 PM 78.3 °F - 64.6 °F 63% 29.95 in 10.0 mi SE 4.6 mph - N/A   Clear
9:35 PM 78.3 °F - 64.6 °F 63% 29.96 in 10.0 mi SE 6.9 mph - N/A   Clear
9:55 PM 78.1 °F - 64.8 °F 63% 29.96 in 10.0 mi SSE 5.8 mph - N/A   Clear
10:15 PM 77.5 °F - 64.9 °F 65% 29.96 in 10.0 mi SSE 8.1 mph - N/A   Clear
10:35 PM 77.0 °F - 65.3 °F 67% 29.96 in 10.0 mi SSE 8.1 mph - N/A   Clear
10:55 PM 76.1 °F - 65.3 °F 69% 29.96 in 10.0 mi SSE 8.1 mph - N/A   Clear
11:15 PM 75.7 °F - 65.7 °F 71% 29.96 in 10.0 mi SSE 6.9 mph - N/A   Clear
11:35 PM 75.2 °F - 65.7 °F 72% 29.95 in 10.0 mi SSE 8.1 mph - N/A   Clear
11:55 PM 75.0 °F - 65.5 °F 72% 29.95 in 10.0 mi SSE 8.1 mph - N/A   Clear